Location: Calvatone
(45.1167°N, 10.4333°E)
Time: 17:53:45
(UTC+00:00)

Orbcomm 22 - Visible Passes

Search period start: 26 May 2024 00:00
Search period end: 05 June 2024 00:00
Orbit: 771 x 773 km, 45.0° (Epoch: 25 May)

Date Brightness Start Highest point End Pass type
(mag) Time Alt. Az. Time Alt. Az. Time Alt. Az.
31 May 9.7 02:33:07 10° SSE 02:35:28 13° SE 02:37:48 10° ESE visible
03 Jun 8.8 02:21:23 11° SSW 02:25:36 27° SE 02:30:07 10° E visible
04 Jun 9.0 01:44:50 16° S 01:47:33 23° SE 01:51:42 10° E visible
